Location: Sternwarte_Laufen
(47.9344°N, 12.9346°E)
Time: 23:48:44
(UTC+01:00)

ISS - Pass Details

Date: 09 November 2018
Orbit: 402 x 409 km, 51.6° (Epoch: 14 November)

Event Time Altitude Azimuth Distance (km) Brightness Sun altitude
Exits shadow 05:15:40 50° 337° (NNW) 522 -3.5 -18.4°
Maximum altitude 05:16:07 57° 15° (NNE) 482 -3.5 -18.4°
Drops below altitude 10° 05:19:22 10° 96° (E) 1,464 0.3 -17.8°
Sets 05:21:28 0° 100° (E) 2,324 1.8 -17.5°
